Regional Weather Roundup
Issued by NWS

Home | Current Version | Previous Version | Text Only | Print | Product List | Glossary Off
Versions: 1 2 3 4 5 6 7 8 9 10 11 12 13 14 15 16 17 18 19 20 21 22 23 24 25 26 27 28 29 30 31 32 33 34 35 36 37 38 39 40 41 42 43 44 45 46 47 48 49 50

000
ASUS43 KFSD 281610
RWRSD

WEATHER ROUNDUP FOR SOUTH DAKOTA
NATIONAL WEATHER SERVICE SIOUX FALLS SD
1100 AM CDT FRI AUG 28 2015

NOTE: "FAIR" INDICATES FEW OR NO CLOUDS BELOW 12,000 FEET WITH NO
SIGNIFICANT WEATHER AND/OR OBSTRUCTIONS TO VISIBILITY.


SDZ001>005-009-010-012>017-281700-
NORTHWEST AND NORTH CENTRAL SOUTH DAKOTA

CITY           SKY/WX    TMP DP  RH WIND       PRES   REMARKS
BUFFALO          N/A     73  54  51 W6        29.96R
FAITH            N/A     68  63  84 S9        29.99S
MOBRIDGE       CLOUDY    71  69  93 SW6       29.93S
$$

SDZ012>016-024>037-041>051-057-063-072>074-281700-
SOUTHWEST AND SOUTH CENTRAL SOUTH DAKOTA

CITY           SKY/WX    TMP DP  RH WIND       PRES   REMARKS
RAPID CTY ARPT SUNNY     75  57  53 W3        30.04S
PIERRE         CLOUDY    70  66  87 S5        29.97R
CUSTER         SUNNY     71  44  37 N7        30.20R
ELLSWORTH AFB  SUNNY     77  53  43 NW13      30.04R
PHILIP         CLOUDY    66  66 100 W5        30.01R FOG
PINE RIDGE     SUNNY     71  55  56 W7        30.07R
WINNER         CLOUDY    69  65  86 NE8       29.99R
$$

SDZ004>011-016>023-039-040-281700-
NORTHEAST SOUTH DAKOTA

CITY           SKY/WX    TMP DP  RH WIND       PRES   REMARKS
ABERDEEN       CLOUDY    70  65  84 SW6       29.96R
WATERTOWN      CLOUDY    70  63  78 E3        29.97R
BROOKINGS      CLOUDY    70  63  78 SE10      29.98S
SISSETON         N/A     72  65  78 MISG      29.94S
$$

SDZ017-020-022-023-036>040-048>070-281700-
SOUTHEAST SOUTH DAKOTA

CITY           SKY/WX    TMP DP  RH WIND       PRES   REMARKS
SIOUX FALLS    CLOUDY    68  65  90 NE15      29.94R
HURON          CLOUDY    72  65  78 SE6       29.95R
CHAMBERLAIN    CLOUDY    68  65  91 E6        29.97R
MITCHELL       CLOUDY    70  65  84 E7        29.95R
YANKTON        CLOUDY    64  63  94 NE12      29.90R
$$

ABBREVIATIONS USED IN REMARKS
   TC - TEMPERATURE IN CELSIUS
  WCI - WIND CHILL INDEX
   HX - HEAT INDEX
  VSB - VISIBILITY




USA.gov is the U.S. government's official web portal to all federal, state and local government web resources and services.